QPF
0.00 0.00 0.00 0.00 0.00 0.00 0.00 0.00 0.00 0.00 0.00 0.00 0.00 0.00 0.00 0.00 0.00 0.00 0.00 0.00 0.00 0.00 0.00 0.00 0.00 0.00 0.00 0.00 0.00 0.00 0.00 0.00 0.00 0.00 0.00 0.00 0.00 0.00 0.00 0.00 0.00 0.00 0.00 0.00 0.00
0.00 0.00 0.00 0.00 0.00 0.00 0.00 0.00 0.00 0.00 0.00 0.00 0.00 0.00 0.00 0.00 0.00 0.00 0.00 0.00 0.00 0.00 0.00 0.00 0.00 0.00 0.00 0.00 0.00 0.00 0.00 0.00 0.00 0.00 0.00 0.00 0.00 0.00 0.00 0.00 0.00 0.00 0.00 0.00 0.00
0.00 0.00 0.00 0.00 0.00 0.00 0.00 0.00 0.00 0.00 0.00 0.00 0.00 0.00 0.00 0.00 0.00 0.00 0.00 0.00 0.00 0.00 0.00 0.00 0.00 0.00 0.00 0.00 0.00 0.00 0.00 0.00 0.00 0.00 0.00 0.00 0.00 0.00 0.00 0.00 0.00 0.00 0.00 0.00 0.00
0.00 0.00 0.00 0.00 0.00 0.00 0.00 0.00 0.00 0.00 0.00 0.00 0.00 0.00 0.00 0.00 0.00 0.00 0.00 0.00 0.00 0.00 0.00 0.00 0.00 0.00 0.00 0.00 0.00 0.00 0.00 0.00 0.00 0.00 0.00 0.00 0.00 0.00 0.00 0.00 0.00 0.00 0.00 0.00 0.00
0.00 0.00 0.00 0.00 0.00 0.00 0.00 0.00 0.00 0.00 0.00 0.00 0.00 0.00 0.00 0.00 0.00 0.00 0.00 0.00 0.00 0.00 0.00 0.00 0.00 0.00 0.00 0.00 0.00 0.00 0.00 0.00 0.00 0.00 0.00 0.00 0.00 0.00 0.00 0.00 0.00 0.00 0.00 0.00 0.00
0.00 0.00 0.00 0.00 0.00 0.00 0.00 0.00 0.00 0.00 0.00 0.00 0.00 0.00 0.00 0.00 0.00 0.00 0.00 0.00 0.00 0.00 0.00 0.00 0.00 0.00 0.00 0.00 0.00 0.00 0.00 0.00 0.00 0.00 0.00 0.00 0.00 0.00 0.00 0.00 0.00 0.00 0.00 0.00 0.00
0.00 0.00 0.00 0.00 0.00 0.00 0.00 0.00 0.00 0.00 0.00 0.00 0.00 0.00 0.00 0.00 0.00 0.00 0.00 0.00 0.00 0.00 0.00 0.00 0.00 0.00 0.00 0.00 0.00 0.00 0.00 0.00 0.00 0.00 0.00 0.00 0.00 0.00 0.00 0.00 0.00 0.00 0.00 0.00 0.00
0.00 0.00 0.00 0.00 0.00 0.00 0.00 0.00 0.00 0.00 0.00 0.00 0.00 0.00 0.00 0.00 0.00 0.00 0.00 0.00 0.00 0.00 0.00 0.00 0.00 0.00 0.00 0.00 0.00 0.00 0.00 0.00 0.00 0.00 0.00 0.00 0.00 0.00 0.00 0.00 0.00 0.00 0.00 0.00 0.00
0.00 0.00 0.00 0.00 0.00 0.00 0.00 0.00 0.00 0.00 0.00 0.00 0.00 0.00 0.00 0.00 0.00 0.00 0.00 0.00 0.00 0.00 0.00 0.00 0.00 0.00 0.00 0.00 0.00 0.00 0.00 0.00 0.00 0.00 0.00 0.00 0.00 0.00 0.00 0.00 0.00 0.00 0.00 0.00 0.00
0.00 0.00 0.00 0.00 0.00 0.00 0.00 0.00 0.00 0.00 0.00 0.00 0.00 0.00 0.00 0.00 0.00 0.00 0.00 0.00 0.00 0.00 0.00 0.00 0.00 0.00 0.00 0.00 0.00 0.00 0.00 0.00 0.00 0.00 0.00 0.00 0.00 0.00 0.00 0.00 0.00 0.00 0.00 0.00 0.00
0.00 0.00 0.00 0.00 0.00 0.00 0.00 0.00 0.00 0.00 0.00 0.00 0.00 0.00 0.00 0.00 0.00 0.00 0.00 0.00 0.00 0.00 0.00 0.00 0.00 0.00 0.00 0.00 0.00 0.00 0.00 0.00 0.00 0.00 0.00 0.00 0.00 0.00 0.00 0.00 0.00 0.00 0.00 0.00 0.00
0.00 0.00 0.00 0.00 0.00 0.00 0.00 0.00 0.00 0.00 0.00 0.00 0.00 0.00 0.00 0.00 0.00 0.00 0.00 0.00 0.00 0.00 0.00 0.00 0.00 0.00 0.00 0.00 0.00 0.00 0.00 0.00 0.00 0.00 0.00 0.00 0.00 0.00 0.00 0.00 0.00 0.00 0.00 0.00 0.00
0.00 0.00 0.00 0.00 0.00 0.00 0.00 0.00 0.00 0.00 0.00 0.00 0.00 0.00 0.00 0.00 0.00 0.00 0.00 0.00 0.00 0.00 0.00 0.00 0.00 0.00 0.00 0.00 0.00 0.00 0.00 0.00 0.00 0.00 0.00 0.00 0.00 0.00 0.00 0.00 0.00 0.00 0.00 0.00 0.00
0.00 0.00 0.00 0.00 0.00 0.00 0.00 0.00 0.00 0.00 0.00 0.00 0.00 0.00 0.00 0.00 0.00 0.00 0.00 0.00 0.00 0.00 0.00 0.00 0.00 0.00 0.00 0.00 0.00 0.00 0.00 0.00 0.00 0.00 0.00 0.00 0.00 0.00 0.00 0.00 0.00 0.00 0.00 0.00 0.00
0.00 0.00 0.00 0.00 0.00 0.00 0.00 0.00 0.00 0.00 0.00 0.00 0.00 0.00 0.00 0.00 0.00 0.00 0.00 0.00 0.00 0.00 0.00 0.00 0.00 0.00 0.00 0.00 0.00 0.00 0.00 0.00 0.00 0.00 0.00 0.00 0.00 0.00 0.00 0.00 0.00 0.00 0.00 0.00 0.00
0.00 0.00 0.00 0.00 0.00 0.00 0.00 0.00 0.00 0.00 0.00 0.00 0.00 0.00 0.00 0.00 0.00 0.00 0.00 0.00 0.00 0.00 0.00 0.00 0.00 0.00 0.00 0.00 0.00 0.00 0.00 0.00 0.00 0.00 0.00 0.00 0.00 0.00 0.00 0.00 0.00 0.00 0.00 0.00 0.00
0.00 0.00 0.00 0.00 0.00 0.00 0.00 0.00 0.00 0.00 0.00 0.00 0.00 0.00 0.00 0.00 0.00 0.00 0.00 0.00 0.00 0.00 0.00 0.00 0.00 0.00 0.00 0.00 0.00 0.00 0.00 0.00 0.00 0.00 0.00 0.00 0.00 0.00 0.00 0.00 0.00 0.00 0.00 0.00 0.00
0.00 0.00 0.00 0.00 0.00 0.00 0.00 0.00 0.00 0.00 0.00 0.00 0.00 0.00 0.00 0.00 0.00 0.00 0.00 0.00 0.00 0.00 0.00 0.00 0.00 0.00 0.00 0.00 0.00 0.00 0.00 0.00 0.00 0.00 0.00 0.00 0.00 0.00 0.00 0.00 0.00 0.00 0.00 0.00 0.00
0.00 0.00 0.00 0.00 0.00 0.00 0.00 0.00 0.00 0.00 0.00 0.00 0.00 0.00 0.00 0.00 0.00 0.00 0.00 0.00 0.00 0.00 0.00 0.00 0.00 0.00 0.00 0.00 0.00 0.00 0.00 0.00 0.00 0.00 0.00 0.00 0.00 0.00 0.00 0.00 0.00 0.00 0.00 0.00 0.00
0.00 0.00 0.00 0.00 0.00 0.00 0.00 0.00 0.00 0.00 0.00 0.00 0.00 0.00 0.00 0.00 0.00 0.00 0.00 0.00 0.00 0.00 0.00 0.00 0.00 0.00 0.00 0.00 0.00 0.00 0.00 0.00 0.00 0.00 0.00 0.00 0.00 0.00 0.00 0.00 0.00 0.00 0.00 0.00 0.00
0.00 0.00 0.00 0.00 0.00 0.00 0.00 0.00 0.00 0.00 0.00 0.00 0.00 0.00 0.00 0.00 0.00 0.00 0.00 0.00 0.00 0.00 0.00 0.00 0.00 0.00 0.00 0.00 0.00 0.00 0.00 0.00 0.00 0.00 0.00 0.00 0.00 0.00 0.00 0.00 0.00 0.00 0.00 0.00 0.00
0.00 0.00 0.00 0.00 0.00 0.00 0.00 0.00 0.00 0.00 0.00 0.00 0.00 0.00 0.00 0.00 0.00 0.00 0.00 0.00 0.00 0.00 0.00 0.00 0.00 0.00 0.00 0.00 0.00 0.00 0.00 0.00 0.00 0.00 0.00 0.00 0.00 0.00 0.00 0.00 0.00 0.00 0.00 0.00 0.00
0.00 0.00 0.00 0.00 0.00 0.00 0.00 0.00 0.00 0.00 0.00 0.00 0.00 0.00 0.00 0.00 0.00 0.00 0.00 0.00 0.00 0.00 0.00 0.00 0.00 0.00 0.00 0.00 0.00 0.00 0.00 0.00 0.00 0.00 0.00 0.00 0.00 0.00 0.00 0.00 0.00 0.00 0.00 0.00 0.00
0.00 0.00 0.00 0.00 0.00 0.00 0.00 0.00 0.00 0.00 0.00 0.00 0.00 0.00 0.00 0.00 0.00 0.00 0.00 0.00 0.00 0.00 0.00 0.00 0.00 0.00 0.00 0.00 0.00 0.00 0.00 0.00 0.00 0.00 0.00 0.00 0.00 0.00 0.00 0.00 0.00 0.00 0.00 0.00 0.00
0.00 0.00 0.00 0.00 0.00 0.00 0.00 0.00 0.00 0.00 0.00 0.00 0.00 0.00 0.00 0.00 0.00 0.00 0.00 0.00 0.00 0.00 0.00 0.00 0.00 0.00 0.00 0.00 0.00 0.00 0.00 0.00 0.00 0.00 0.00 0.00 0.00 0.00 0.00 0.00 0.00 0.00 0.00 0.00 0.00
0.00 0.00 0.00 0.00 0.00 0.00 0.00 0.00 0.00 0.00 0.00 0.00 0.00 0.00 0.00 0.00 0.00 0.00 0.00 0.00 0.00 0.00 0.00 0.00 0.00 0.00 0.00 0.00 0.00 0.00 0.00 0.00 0.00 0.00 0.00 0.00 0.00 0.00 0.00 0.00 0.00 0.00 0.00 0.00 0.00
0.00 0.00 0.00 0.00 0.00 0.00 0.00 0.00 0.00 0.00 0.00 0.00 0.00 0.00 0.00 0.00 0.00 0.00 0.00 0.00 0.00 0.00 0.00 0.00 0.00 0.00 0.00 0.00 0.00 0.00 0.00 0.00 0.00 0.00 0.00 0.00 0.00 0.00 0.00 0.00 0.00 0.00 0.00 0.00 0.00
MSLP
1016.77 1016.39 1016.02 1015.62 1015.19 1014.87 1014.37 1014.03 1013.69 1013.60 1013.34 1012.95 1012.75 1012.62 1012.43 1012.21 1011.90 1011.03 1008.54 1007.58 1007.36 1007.52 1007.79 1006.34 1005.81 1004.81 1003.75 1002.35 1001.58 1000.99 999.66 1000.21 1000.46 1000.47 1001.15 1001.56 1002.60 1004.01 1004.89 1005.68 1006.47 1007.12 1008.76 1010.52 1012.51
1016.97 1016.50 1016.04 1015.64 1015.19 1014.80 1014.41 1013.97 1013.65 1013.33 1013.21 1012.90 1012.52 1012.41 1012.29 1012.15 1010.81 1008.51 1007.17 1007.30 1007.62 1007.64 1007.06 1005.63 1004.31 1003.77 1002.20 1001.67 1000.78 999.74 999.59 1000.61 1001.13 1001.48 1001.28 1001.97 1002.67 1003.39 1004.51 1006.16 1007.47 1008.72 1010.17 1010.96 1011.70
1017.16 1016.60 1016.07 1015.63 1015.18 1014.71 1014.31 1013.88 1013.56 1013.25 1012.97 1012.77 1012.34 1012.32 1012.22 1011.90 1009.38 1006.03 1007.02 1007.10 1007.57 1007.62 1006.41 1005.18 1004.41 1003.42 1001.78 1001.23 1000.97 1000.04 1000.08 1000.59 1000.96 1001.71 1001.12 1001.88 1002.71 1002.73 1003.60 1005.35 1007.40 1008.87 1010.24 1011.06 1011.39
1017.36 1016.73 1016.16 1015.63 1015.18 1014.66 1014.22 1013.72 1013.34 1013.16 1012.87 1012.61 1012.29 1012.19 1012.22 1011.13 1007.30 1006.20 1007.07 1007.33 1007.57 1007.04 1005.99 1004.90 1004.05 1002.89 1001.35 1000.90 1001.26 1000.45 1000.99 1001.11 1001.18 1001.64 1001.43 1001.73 1002.45 1003.24 1003.90 1005.61 1007.70 1009.20 1010.24 1010.99 1011.23
1017.46 1016.91 1016.27 1015.64 1015.12 1014.60 1014.09 1013.60 1013.09 1012.89 1012.72 1012.54 1012.32 1012.29 1012.09 1009.02 1005.85 1006.43 1007.13 1007.48 1007.25 1006.80 1005.44 1004.48 1003.59 1002.53 1001.32 1001.33 1001.34 1000.69 1000.94 1001.07 1001.14 1001.79 1001.67 1002.31 1002.67 1004.07 1005.16 1006.69 1008.15 1009.28 1010.25 1010.76 1011.21
1017.56 1016.98 1016.38 1015.69 1015.01 1014.47 1013.88 1013.44 1012.93 1012.65 1012.55 1012.40 1012.32 1012.35 1010.61 1006.72 1005.24 1006.16 1006.26 1006.71 1006.02 1005.63 1004.86 1004.34 1003.33 1003.02 1002.25 1001.78 1001.41 1001.37 1001.34 1001.12 1001.13 1001.83 1002.12 1002.34 1003.31 1004.21 1005.96 1007.20 1008.45 1009.38 1010.01 1010.51 1011.23
1017.64 1017.02 1016.37 1015.72 1014.98 1014.29 1013.67 1013.15 1012.70 1012.39 1012.34 1012.26 1012.22 1011.65 1008.51 1005.48 1005.10 1005.56 1005.88 1005.68 1005.36 1005.05 1004.40 1004.15 1004.03 1003.50 1002.44 1001.72 1001.98 1001.61 1001.20 1000.54 1001.09 1001.52 1001.99 1002.28 1002.91 1004.31 1005.94 1007.17 1008.28 1009.09 1009.84 1010.50 1011.22
1017.64 1016.98 1016.33 1015.61 1014.94 1014.17 1013.51 1012.91 1012.45 1012.09 1012.12 1012.12 1012.12 1010.64 1006.18 1005.19 1005.10 1005.50 1005.37 1005.24 1005.28 1004.97 1004.62 1004.32 1004.43 1003.70 1002.93 1002.20 1001.86 1001.06 1000.40 999.79 1000.77 1001.26 1001.94 1002.16 1002.92 1004.37 1005.80 1006.81 1007.79 1008.75 1009.51 1010.36 1011.07
1017.58 1016.93 1016.21 1015.48 1014.81 1014.13 1013.40 1012.83 1012.31 1012.08 1011.98 1012.00 1011.37 1009.03 1005.22 1006.10 1005.27 1004.78 1004.88 1004.79 1005.14 1005.01 1004.96 1005.04 1004.50 1003.24 1002.21 1001.94 1000.57 1000.20 998.81 999.40 1000.52 1000.73 1001.31 1001.60 1002.63 1004.13 1005.27 1006.35 1007.33 1008.39 1009.19 1009.97 1010.74
1017.48 1016.85 1016.13 1015.37 1014.66 1014.04 1013.36 1012.98 1012.40 1012.25 1011.75 1010.65 1009.14 1007.47 1004.90 1004.02 1003.97 1004.27 1004.57 1004.47 1004.66 1004.66 1004.66 1004.58 1003.56 1002.44 1001.87 1000.49 998.95 998.94 998.42 999.25 999.99 1000.86 1000.88 1000.74 1002.31 1003.80 1004.52 1005.45 1006.68 1007.73 1008.68 1009.39 1010.15
1017.48 1016.71 1015.99 1015.15 1014.46 1013.95 1012.84 1011.82 1011.48 1010.07 1008.63 1005.56 1004.80 1003.68 1003.05 1002.90 1003.78 1004.07 1004.35 1004.41 1004.38 1004.19 1003.56 1003.29 1002.38 1001.16 1000.10 1000.00 999.81 999.04 998.65 999.10 999.60 1000.45 1000.49 1000.26 1001.76 1003.34 1004.01 1004.46 1005.66 1006.76 1007.93 1008.67 1009.42
1017.47 1016.69 1015.78 1014.84 1013.99 1013.49 1012.91 1009.08 1007.49 1007.38 1005.67 1004.34 1003.69 1003.03 1002.89 1003.10 1003.15 1003.41 1004.05 1003.85 1003.60 1003.08 1002.88 1002.31 1001.43 1000.35 1000.03 1000.17 1000.32 1000.00 999.25 998.95 999.99 1000.54 1000.62 1000.35 1001.07 1002.49 1003.45 1003.72 1004.63 1005.66 1006.88 1007.65 1008.46
1017.52 1016.71 1015.73 1014.42 1013.43 1012.40 1009.75 1007.87 1007.35 1006.85 1004.90 1002.08 1002.16 1002.18 1002.45 1002.54 1001.93 1002.50 1003.27 1002.71 1002.65 1002.43 1001.87 1000.91 1000.30 1000.20 1000.49 1000.71 1000.46 999.81 999.06 999.05 999.70 1000.51 1000.55 1000.27 1000.68 1001.65 1002.71 1003.30 1003.78 1004.78 1005.83 1006.51 1007.36
1017.51 1016.80 1015.89 1014.30 1012.91 1010.09 1007.97 1007.37 1007.13 1006.78 1003.90 1000.77 1000.99 1000.89 1001.39 1001.83 1001.29 1001.63 1002.53 1002.01 1001.84 1001.40 1001.02 1000.74 1000.09 1000.39 1000.58 1000.09 1000.15 998.93 999.37 999.67 999.76 1000.13 999.59 1000.15 999.56 1001.03 1001.75 1002.56 1003.17 1003.93 1004.85 1005.60 1006.48
1017.30 1016.77 1015.99 1015.99 1013.00 1009.41 1007.85 1007.50 1007.16 1006.41 1002.02 998.76 999.37 999.16 1000.09 1000.75 999.81 1000.91 1002.04 1001.66 1000.93 1000.77 1000.81 1000.25 999.94 1000.45 1000.25 1000.00 999.87 999.25 999.85 1000.11 1000.08 999.97 999.39 999.66 999.57 999.72 1000.80 1001.57 1002.25 1002.98 1003.78 1004.69 1005.69
1016.99 1016.50 1016.12 1012.29 1012.12 1009.62 1008.58 1007.79 1006.94 1004.86 1000.07 998.64 998.98 999.12 999.46 999.96 999.58 1000.34 1001.40 1001.45 1001.01 1000.78 1000.47 999.45 999.97 1000.10 999.91 999.72 999.79 999.89 1000.38 1000.47 1000.34 999.64 998.98 999.30 999.54 999.12 999.27 999.99 1000.62 1001.34 1002.52 1003.84 1004.87
1016.50 1015.72 1015.91 1014.16 1009.56 1008.78 1008.60 1007.48 1005.29 1001.86 999.04 997.72 998.10 998.39 998.31 998.74 998.97 999.74 1000.48 1000.75 1000.30 1000.17 999.81 999.95 999.78 999.68 999.57 999.42 1000.09 1000.29 1000.04 999.61 999.65 999.24 998.67 998.75 999.35 999.04 999.50 1000.19 1000.63 1000.57 1001.25 1002.69 1004.01
1015.79 1014.48 1012.54 1011.81 1009.63 1009.33 1008.46 1006.72 1002.99 999.71 997.79 997.05 997.11 997.57 997.43 997.71 998.17 999.18 999.64 999.77 999.96 999.50 998.73 999.00 998.95 999.28 999.51 999.26 999.56 999.90 999.14 998.11 998.10 997.99 998.16 999.76 999.54 999.64 1000.00 1000.76 1001.19 1001.62 1001.06 1001.59 1003.06
1015.11 1011.43 1009.75 1009.27 1009.48 1009.40 1007.80 1004.47 1000.92 998.78 997.45 996.87 996.76 996.56 996.92 996.99 997.44 998.23 998.51 998.58 998.79 998.69 998.07 997.72 997.79 998.37 998.94 999.07 998.97 999.30 999.17 998.64 998.17 998.41 998.36 998.63 999.73 999.91 1000.38 1000.68 1001.22 1001.34 1001.28 1001.09 1002.17
1014.81 1011.00 1008.24 1007.45 1008.44 1008.42 1006.55 1002.38 1000.31 999.02 997.47 996.95 996.19 996.15 995.82 996.06 996.46 996.83 997.30 997.53 997.67 998.23 997.89 996.96 997.13 997.34 998.39 998.94 998.87 998.92 999.35 999.21 998.94 998.29 998.65 998.54 999.40 999.45 1000.50 1000.67 1001.12 1001.46 1001.26 1001.34 1001.80
1014.36 1009.46 1006.37 1007.14 1008.00 1006.48 1003.23 1001.52 1000.50 998.57 997.80 997.60 996.47 995.70 995.51 995.31 995.45 995.68 996.27 996.72 997.02 997.24 997.91 997.56 997.38 997.30 998.14 998.71 998.51 999.33 999.13 998.73 998.18 998.46 998.24 998.58 998.95 1000.25 1000.98 1001.48 1001.55 1001.72 1001.81 1001.91 1002.28
1012.47 1008.49 1006.22 1006.98 1006.59 1003.83 1001.88 1001.05 1000.37 998.87 997.69 997.80 997.33 995.97 995.29 995.08 995.01 995.36 995.36 995.76 996.22 996.68 997.10 997.65 997.57 997.07 997.48 998.37 998.66 998.15 998.64 998.99 998.59 999.38 999.54 999.48 999.84 1000.60 1001.30 1001.78 1002.11 1001.93 1002.35 1002.64 1002.82
1011.69 1007.57 1006.05 1006.38 1004.00 1001.95 1001.16 1000.35 999.71 998.51 997.47 997.44 997.41 996.89 996.09 995.27 994.98 994.87 995.31 995.42 995.87 996.44 996.50 997.58 997.58 997.24 997.22 997.87 998.36 998.12 997.99 998.37 998.84 999.01 998.96 999.50 999.91 1000.84 1001.54 1001.87 1002.55 1002.72 1002.62 1003.20 1003.35
1012.18 1007.27 1005.58 1005.39 1004.00 1001.89 1000.28 999.39 998.82 998.54 997.52 997.05 996.94 997.04 996.57 995.82 995.25 994.63 994.72 994.89 995.58 996.44 996.92 997.55 997.38 997.26 996.35 996.94 997.48 998.18 998.21 998.20 998.22 998.54 999.14 999.27 1000.13 1000.92 1001.41 1002.18 1002.78 1003.27 1003.62 1003.71 1004.10
1011.99 1007.27 1004.05 1002.90 1002.86 1002.05 1000.67 998.78 998.35 997.61 997.42 997.39 996.76 996.35 996.07 995.89 995.37 994.86 994.69 994.67 995.87 997.00 997.05 997.53 997.43 997.55 997.03 996.34 996.54 997.06 997.79 997.87 998.49 998.86 998.87 998.79 999.71 1000.40 1001.95 1003.20 1004.01 1004.44 1004.69 1004.78 1004.96
1011.21 1008.22 1005.72 1004.40 1002.78 1001.03 1000.52 999.00 997.62 997.40 996.95 996.99 996.48 996.10 995.95 995.83 995.12 994.60 994.65 994.33 995.70 996.64 997.20 997.40 997.31 997.91 997.12 996.81 996.67 996.35 997.02 997.68 998.18 998.69 999.05 999.40 999.74 1000.96 1002.90 1003.93 1004.46 1004.89 1005.23 1005.50 1005.83
1011.12 1010.34 1009.35 1005.20 1003.26 1001.87 1000.08 999.44 998.20 997.41 996.97 996.60 996.60 996.14 995.75 995.59 995.44 994.83 994.66 994.67 995.49 996.31 997.10 997.09 997.33 997.72 997.19 997.31 996.99 997.00 996.93 997.16 997.58 998.46 999.06 999.37 1000.18 1001.74 1003.09 1004.29 1005.06 1005.42 1005.81 1006.22 1006.67
Thickness
5758 5763 5767 5772 5777 5782 5787 5791 5795 5797 5801 5805 5808 5811 5814 5816 5820 5829 5837 5854 5859 5860 5860 5869 5869 5872 5880 5876 5890 5895 5871 5843 5848 5853 5850 5871 5845 5848 5849 5829 5829 5830 5815 5805 5795
5756 5761 5766 5771 5776 5782 5787 5791 5795 5800 5802 5806 5811 5813 5816 5819 5831 5841 5861 5861 5860 5862 5861 5860 5862 5872 5871 5875 5886 5884 5869 5850 5865 5861 5858 5860 5850 5847 5838 5821 5813 5809 5809 5808 5803
5753 5759 5765 5770 5776 5782 5788 5793 5797 5801 5805 5808 5813 5815 5817 5821 5835 5858 5865 5865 5863 5864 5871 5874 5874 5872 5867 5881 5877 5885 5861 5874 5872 5868 5880 5862 5852 5869 5848 5822 5817 5804 5802 5803 5803
5750 5757 5764 5769 5775 5782 5788 5794 5799 5802 5806 5810 5814 5817 5818 5828 5820 5867 5866 5865 5864 5868 5870 5867 5866 5858 5867 5866 5877 5869 5873 5872 5873 5874 5874 5864 5868 5852 5851 5835 5831 5820 5813 5807 5803
5748 5754 5762 5768 5774 5781 5788 5795 5801 5805 5808 5811 5815 5816 5822 5832 5849 5870 5866 5864 5866 5867 5865 5863 5859 5863 5863 5868 5871 5869 5872 5878 5881 5873 5875 5872 5860 5844 5838 5840 5834 5824 5815 5809 5806
5744 5752 5759 5767 5774 5781 5789 5796 5802 5806 5809 5812 5815 5816 5829 5828 5878 5872 5873 5868 5872 5870 5868 5870 5867 5873 5865 5864 5862 5873 5871 5874 5880 5870 5869 5860 5852 5850 5837 5839 5826 5819 5814 5814 5808
5741 5749 5757 5765 5773 5782 5790 5797 5804 5808 5810 5813 5815 5822 5836 5849 5880 5877 5875 5873 5879 5876 5866 5877 5876 5865 5872 5862 5876 5873 5856 5879 5874 5872 5863 5872 5846 5835 5844 5839 5824 5820 5817 5814 5810
5738 5746 5755 5764 5772 5781 5790 5798 5804 5809 5811 5813 5815 5827 5842 5876 5879 5874 5878 5874 5881 5884 5879 5883 5880 5869 5865 5878 5868 5861 5872 5858 5873 5874 5872 5867 5824 5846 5850 5838 5826 5822 5819 5815 5812
5735 5743 5752 5761 5770 5779 5788 5796 5802 5807 5810 5813 5820 5831 5842 5869 5861 5877 5880 5866 5871 5876 5878 5878 5873 5863 5872 5850 5857 5867 5863 5862 5857 5885 5874 5868 5837 5851 5855 5842 5829 5825 5821 5818 5814
5731 5740 5749 5759 5768 5776 5786 5791 5798 5803 5810 5820 5832 5826 5853 5852 5871 5876 5883 5879 5864 5864 5859 5858 5860 5852 5855 5860 5848 5860 5872 5869 5855 5867 5875 5872 5848 5851 5855 5847 5835 5831 5826 5822 5817
5725 5735 5745 5756 5765 5773 5785 5799 5802 5807 5821 5840 5845 5851 5862 5878 5880 5867 5876 5867 5865 5856 5837 5856 5843 5838 5864 5873 5873 5880 5880 5867 5877 5879 5872 5877 5854 5847 5855 5855 5842 5837 5830 5826 5823
5719 5729 5741 5753 5764 5772 5780 5806 5820 5825 5817 5849 5853 5859 5868 5871 5848 5861 5875 5850 5848 5834 5851 5846 5836 5869 5882 5875 5864 5863 5865 5871 5872 5876 5870 5873 5862 5858 5856 5858 5853 5846 5838 5835 5833
5712 5722 5734 5750 5762 5775 5799 5809 5826 5830 5815 5847 5857 5852 5855 5865 5853 5853 5864 5861 5846 5838 5845 5843 5859 5878 5866 5856 5849 5862 5868 5870 5860 5865 5873 5871 5855 5853 5860 5863 5864 5859 5853 5850 5843
5705 5715 5726 5744 5760 5786 5795 5814 5821 5825 5800 5832 5840 5853 5861 5861 5847 5877 5874 5864 5852 5842 5853 5851 5875 5861 5855 5853 5860 5860 5881 5872 5866 5851 5838 5871 5833 5847 5855 5853 5857 5857 5854 5852 5850
5699 5707 5718 5723 5751 5774 5794 5806 5814 5811 5770 5851 5847 5887 5870 5849 5866 5860 5878 5865 5847 5849 5854 5846 5857 5848 5845 5854 5871 5867 5877 5863 5862 5855 5862 5858 5846 5855 5868 5847 5851 5859 5859 5858 5856
5693 5701 5708 5741 5747 5770 5783 5795 5797 5769 5771 5824 5845 5842 5841 5849 5858 5863 5854 5870 5870 5851 5858 5865 5879 5866 5862 5874 5875 5878 5859 5856 5857 5861 5837 5856 5850 5852 5865 5865 5871 5874 5867 5863 5858
5687 5699 5702 5717 5752 5770 5775 5774 5756 5761 5832 5822 5827 5841 5844 5837 5845 5845 5836 5832 5830 5818 5824 5844 5850 5869 5876 5857 5864 5859 5845 5822 5816 5823 5828 5872 5849 5860 5879 5875 5874 5881 5877 5870 5865
5681 5698 5716 5726 5748 5755 5757 5749 5741 5799 5817 5844 5841 5839 5830 5845 5843 5838 5832 5824 5843 5846 5839 5821 5815 5850 5868 5859 5844 5846 5858 5846 5810 5826 5844 5852 5826 5848 5876 5876 5876 5875 5886 5883 5869
5675 5710 5725 5734 5738 5743 5737 5733 5767 5801 5828 5825 5834 5823 5824 5841 5842 5834 5832 5834 5846 5856 5834 5834 5834 5869 5866 5872 5871 5847 5836 5879 5853 5860 5841 5854 5848 5866 5870 5866 5866 5868 5874 5883 5872
5662 5695 5719 5737 5734 5731 5726 5745 5779 5809 5824 5826 5809 5827 5817 5831 5830 5831 5830 5850 5847 5859 5871 5865 5834 5870 5863 5870 5871 5860 5868 5831 5844 5816 5806 5840 5831 5837 5840 5850 5857 5857 5865 5874 5876
5651 5686 5722 5726 5721 5721 5732 5753 5772 5809 5817 5804 5810 5821 5828 5830 5839 5835 5833 5850 5859 5858 5863 5860 5849 5848 5855 5837 5838 5839 5836 5852 5865 5855 5828 5818 5831 5853 5842 5846 5847 5853 5860 5864 5866
5649 5668 5709 5710 5695 5730 5738 5758 5771 5788 5811 5804 5810 5821 5828 5837 5832 5830 5831 5845 5867 5865 5840 5855 5844 5831 5836 5857 5866 5867 5847 5847 5829 5813 5834 5830 5820 5858 5850 5849 5849 5852 5853 5858 5860
5629 5665 5693 5695 5697 5725 5743 5749 5765 5776 5791 5794 5792 5810 5824 5823 5817 5834 5836 5862 5862 5854 5846 5848 5830 5816 5827 5839 5849 5840 5857 5859 5854 5851 5830 5815 5818 5855 5847 5846 5844 5842 5849 5848 5851
5604 5642 5665 5682 5700 5714 5729 5741 5749 5775 5784 5796 5796 5804 5804 5806 5827 5825 5832 5853 5860 5851 5848 5848 5835 5822 5823 5828 5845 5821 5837 5851 5852 5829 5826 5830 5824 5833 5835 5834 5836 5836 5839 5841 5839
5586 5628 5662 5677 5684 5698 5715 5739 5739 5751 5778 5784 5783 5792 5796 5787 5804 5811 5831 5844 5840 5825 5840 5837 5811 5827 5842 5860 5857 5844 5834 5843 5830 5836 5825 5844 5833 5836 5823 5823 5821 5824 5825 5824 5823
5571 5597 5635 5653 5675 5692 5696 5717 5738 5752 5764 5762 5771 5790 5796 5785 5805 5808 5824 5836 5816 5830 5826 5837 5811 5819 5823 5846 5848 5844 5845 5842 5839 5837 5836 5840 5835 5837 5827 5824 5817 5816 5815 5811 5810
5557 5574 5586 5630 5655 5669 5694 5703 5722 5745 5761 5773 5774 5779 5781 5796 5816 5834 5842 5847 5833 5820 5813 5819 5815 5805 5797 5829 5833 5809 5834 5841 5843 5841 5835 5819 5834 5824 5814 5810 5806 5807 5806 5802 5800